06 | 06 | 2020

Klimadaten

Klimadaten von der Klimastation Reinstorf   

Datum Zeit Temp. A. Temp. A. min Temp. A. max BodenTemp 1 BodenTemp 2 BodenTemp 3 BodenTemp 4 Feuchte A. BlattFeu 1 Bod.Feucht 1 Luftdruck Regen Wind Richtung Richtung Sonnenschein Zeit Temp. A ET UV Solar Taupunkt Windchill Windböen
05.06.20 00:00:00 13,2 °C 13,1 °C 13,2 °C 13,9 °C 16,1 °C 16,7 °C 17,8 °C 95,00% 15 lf 10 cb 991,3 hPa 0,0 mm 1,6 km/h (1 Bft) S-SW 202 ° 0 min 6 min 0,000 mm 0,0 UV-I 0 W/m˛ 12,4 °C 13,1 °C 8,0 km/h (2 Bft)
05.06.20 00:30:00 13,3 °C 13,2 °C 13,4 °C 13,9 °C 15,6 °C 16,1 °C 17,8 °C 94,00% 15 lf 10 cb 991,4 hPa 0,0 mm 4,8 km/h (1 Bft) W-SW 247 ° 0 min 30 min 0,000 mm 0,0 UV-I 0 W/m˛ 12,4 °C 13,2 °C 11,3 km/h (2 Bft)
05.06.20 01:00:00 13,2 °C 13,2 °C 13,4 °C 13,9 °C 15,6 °C 16,1 °C 17,8 °C 95,00% 15 lf 10 cb 991,2 hPa 0,0 mm 11,3 km/h (2 Bft) W 270 ° 0 min 30 min 0,000 mm 0,0 UV-I 0 W/m˛ 12,4 °C 13,2 °C 20,9 km/h (4 Bft)
05.06.20 01:30:00 12,9 °C 12,9 °C 13,2 °C 13,3 °C 15,6 °C 16,1 °C 17,8 °C 95,00% 15 lf 11 cb 991,4 hPa 0,0 mm 12,9 km/h (3 Bft) W 270 ° 0 min 30 min 0,000 mm 0,0 UV-I 0 W/m˛ 12,1 °C 12,9 °C 19,3 km/h (3 Bft)
05.06.20 02:00:00 12,8 °C 12,8 °C 12,9 °C 13,3 °C 15,6 °C 16,1 °C 17,8 °C 95,00% 15 lf 10 cb 991,8 hPa 0,0 mm 11,3 km/h (2 Bft) W 270 ° 0 min 30 min 0,000 mm 0,0 UV-I 0 W/m˛ 12,0 °C 12,8 °C 19,3 km/h (3 Bft)
05.06.20 02:30:00 12,2 °C 12,2 °C 12,8 °C 12,8 °C 15,0 °C 16,1 °C 17,8 °C 94,00% 15 lf 9 cb 991,8 hPa 0,0 mm 11,3 km/h (2 Bft) W-NW 292 ° 0 min 30 min 0,000 mm 0,0 UV-I 0 W/m˛ 11,3 °C 12,2 °C 20,9 km/h (4 Bft)
05.06.20 03:00:00 11,8 °C 11,8 °C 12,2 °C 12,8 °C 15,0 °C 15,6 °C 17,2 °C 94,00% 15 lf 9 cb 991,8 hPa 0,0 mm 14,5 km/h (3 Bft) W 270 ° 0 min 30 min 0,000 mm 0,0 UV-I 0 W/m˛ 10,9 °C 11,8 °C 24,1 km/h (4 Bft)
05.06.20 03:30:00 11,5 °C 11,5 °C 11,8 °C 12,2 °C 15,0 °C 15,6 °C 17,2 °C 94,00% 14 lf 9 cb 991,9 hPa 0,0 mm 12,9 km/h (3 Bft) W 270 ° 0 min 30 min 0,000 mm 0,0 UV-I 0 W/m˛ 10,6 °C 11,5 °C 22,5 km/h (4 Bft)
05.06.20 04:00:00 11,4 °C 11,4 °C 11,5 °C 12,2 °C 14,4 °C 15,6 °C 17,2 °C 94,00% 10 lf 10 cb 992,0 hPa 0,0 mm 11,3 km/h (2 Bft) W 270 ° 0 min 30 min 0,000 mm 0,0 UV-I 0 W/m˛ 10,5 °C 11,4 °C 22,5 km/h (4 Bft)
05.06.20 04:30:00 10,9 °C 10,9 °C 11,4 °C 11,7 °C 14,4 °C 15,0 °C 17,2 °C 94,00% 7 lf 10 cb 991,9 hPa 0,0 mm 11,3 km/h (2 Bft) W 270 ° 0 min 30 min 0,000 mm 0,0 UV-I 0 W/m˛ 10,0 °C 10,9 °C 20,9 km/h (4 Bft)
05.06.20 05:00:00 11,0 °C 10,9 °C 11,0 °C 11,7 °C 13,9 °C 15,0 °C 17,2 °C 94,00% 3 lf 10 cb 992,2 hPa 0,0 mm 8,0 km/h (2 Bft) W 270 ° 30 min 30 min 0,000 mm 0,0 UV-I 0 W/m˛ 10,1 °C 10,9 °C 16,1 km/h (3 Bft)
05.06.20 05:30:00 11,1 °C 11,0 °C 11,1 °C 11,7 °C 13,9 °C 15,0 °C 17,2 °C 94,00% 1 lf 10 cb 992,3 hPa 0,0 mm 8,0 km/h (2 Bft) W 270 ° 30 min 30 min 0,000 mm 0,0 UV-I 0 W/m˛ 10,2 °C 11,0 °C 20,9 km/h (4 Bft)
05.06.20 06:00:00 11,1 °C 11,1 °C 11,2 °C 11,7 °C 13,9 °C 15,0 °C 16,7 °C 94,00% 0 lf 10 cb 992,8 hPa 0,0 mm 9,7 km/h (2 Bft) W 270 ° 30 min 30 min 0,000 mm 0,0 UV-I 28 W/m˛ 10,2 °C 11,1 °C 19,3 km/h (3 Bft)
05.06.20 06:30:00 11,2 °C 11,1 °C 11,2 °C 11,7 °C 13,9 °C 15,0 °C 16,7 °C 93,00% 0 lf 10 cb 992,8 hPa 0,0 mm 11,3 km/h (2 Bft) W 270 ° 30 min 30 min 0,000 mm 0,0 UV-I 70 W/m˛ 10,1 °C 11,1 °C 22,5 km/h (4 Bft)
05.06.20 07:00:00 11,2 °C 11,2 °C 11,3 °C 11,7 °C 13,9 °C 15,0 °C 16,7 °C 92,00% 0 lf 10 cb 993,1 hPa 0,0 mm 12,9 km/h (3 Bft) W 270 ° 30 min 30 min 0,025 mm 0,0 UV-I 91 W/m˛ 9,9 °C 11,2 °C 27,4 km/h (5 Bft)
05.06.20 07:30:00 11,2 °C 11,1 °C 11,2 °C 11,7 °C 13,9 °C 15,0 °C 16,7 °C 91,00% 0 lf 10 cb 993,6 hPa 0,0 mm 11,3 km/h (2 Bft) W 270 ° 30 min 30 min 0,000 mm 0,0 UV-I 186 W/m˛ 9,8 °C 11,1 °C 24,1 km/h (4 Bft)
05.06.20 08:00:00 11,2 °C 11,1 °C 11,4 °C 11,7 °C 14,4 °C 15,0 °C 16,7 °C 89,00% 0 lf 10 cb 993,8 hPa 0,0 mm 12,9 km/h (3 Bft) W 270 ° 30 min 30 min 0,076 mm 0,6 UV-I 199 W/m˛ 9,5 °C 11,1 °C 20,9 km/h (4 Bft)
05.06.20 08:30:00 11,6 °C 11,0 °C 11,6 °C 12,2 °C 14,4 °C 15,0 °C 16,7 °C 88,00% 0 lf 10 cb 993,9 hPa 0,0 mm 14,5 km/h (3 Bft) W-SW 247 ° 30 min 30 min 0,000 mm 1,0 UV-I 380 W/m˛ 9,7 °C 11,0 °C 27,4 km/h (5 Bft)
05.06.20 09:00:00 12,7 °C 11,5 °C 12,7 °C 12,8 °C 14,4 °C 15,0 °C 16,7 °C 85,00% 0 lf 10 cb 994,0 hPa 0,0 mm 14,5 km/h (3 Bft) W 270 ° 30 min 30 min 0,152 mm 1,6 UV-I 768 W/m˛ 10,2 °C 11,5 °C 25,7 km/h (4 Bft)
05.06.20 09:30:00 13,5 °C 12,2 °C 13,5 °C 14,4 °C 15,0 °C 15,0 °C 16,1 °C 83,00% 0 lf 10 cb 994,1 hPa 0,0 mm 14,5 km/h (3 Bft) W 270 ° 30 min 30 min 0,000 mm 2,1 UV-I 868 W/m˛ 10,7 °C 12,2 °C 29,0 km/h (5 Bft)
05.06.20 10:00:00 13,8 °C 13,0 °C 13,8 °C 14,4 °C 15,0 °C 15,0 °C 16,1 °C 79,00% 0 lf 10 cb 994,3 hPa 0,0 mm 16,1 km/h (3 Bft) W 270 ° 30 min 30 min 0,254 mm 2,4 UV-I 898 W/m˛ 10,2 °C 13,0 °C 29,0 km/h (5 Bft)
05.06.20 10:30:00 13,2 °C 13,2 °C 13,8 °C 13,9 °C 15,6 °C 15,6 °C 16,1 °C 77,00% 0 lf 10 cb 994,4 hPa 0,0 mm 16,1 km/h (3 Bft) W 270 ° 30 min 30 min 0,000 mm 1,8 UV-I 568 W/m˛ 9,3 °C 13,2 °C 29,0 km/h (5 Bft)
05.06.20 11:00:00 14,4 °C 13,1 °C 14,4 °C 15,6 °C 15,6 °C 16,1 °C 16,1 °C 71,00% 0 lf 11 cb 994,4 hPa 0,0 mm 14,5 km/h (3 Bft) W 270 ° 30 min 30 min 0,279 mm 3,3 UV-I 935 W/m˛ 9,2 °C 13,1 °C 29,0 km/h (5 Bft)
05.06.20 11:30:00 13,5 °C 13,5 °C 15,3 °C 14,4 °C 15,6 °C 16,7 °C 16,1 °C 73,00% 0 lf 11 cb 994,4 hPa 0,0 mm 14,5 km/h (3 Bft) W-SW 247 ° 30 min 30 min 0,000 mm 3,6 UV-I 951 W/m˛ 8,8 °C 13,5 °C 27,4 km/h (5 Bft)
05.06.20 12:00:00 14,8 °C 13,3 °C 14,8 °C 16,7 °C 16,1 °C 16,7 °C 16,1 °C 75,00% 0 lf 11 cb 994,2 hPa 0,0 mm 11,3 km/h (2 Bft) W 270 ° 30 min 30 min 0,305 mm 3,7 UV-I 900 W/m˛ 10,4 °C 13,3 °C 30,6 km/h (5 Bft)
05.06.20 12:30:00 14,8 °C 14,6 °C 15,1 °C 16,1 °C 16,7 °C 17,2 °C 16,1 °C 72,00% 0 lf 11 cb 994,1 hPa 0,0 mm 12,9 km/h (3 Bft) SW 225 ° 30 min 30 min 0,000 mm 3,5 UV-I 803 W/m˛ 9,8 °C 14,6 °C 24,1 km/h (4 Bft)
05.06.20 13:00:00 15,0 °C 14,8 °C 15,6 °C 16,7 °C 17,2 °C 17,8 °C 16,1 °C 66,00% 0 lf 11 cb 994,0 hPa 0,0 mm 12,9 km/h (3 Bft) SW 225 ° 30 min 30 min 0,406 mm 4,5 UV-I 1062 W/m˛ 8,7 °C 14,8 °C 22,5 km/h (4 Bft)
05.06.20 13:30:00 14,7 °C 14,7 °C 16,2 °C 16,1 °C 17,8 °C 18,3 °C 16,7 °C 66,00% 0 lf 11 cb 994,0 hPa 0,0 mm 14,5 km/h (3 Bft) W-SW 247 ° 30 min 30 min 0,000 mm 4,5 UV-I 1123 W/m˛ 8,4 °C 14,7 °C 27,4 km/h (5 Bft)
05.06.20 14:00:00 15,5 °C 14,6 °C 15,5 °C 17,2 °C 17,8 °C 18,3 °C 16,7 °C 67,00% 0 lf 11 cb 994,0 hPa 0,0 mm 12,9 km/h (3 Bft) W-SW 247 ° 30 min 30 min 0,330 mm 3,8 UV-I 552 W/m˛ 9,4 °C 14,6 °C 24,1 km/h (4 Bft)
05.06.20 14:30:00 16,4 °C 15,5 °C 16,6 °C 18,3 °C 18,9 °C 18,9 °C 16,7 °C 63,00% 0 lf 11 cb 994,0 hPa 0,0 mm 14,5 km/h (3 Bft) W-SW 247 ° 30 min 30 min 0,000 mm 4,4 UV-I 1165 W/m˛ 9,3 °C 15,5 °C 30,6 km/h (5 Bft)
05.06.20 15:00:00 16,7 °C 16,3 °C 16,7 °C 18,3 °C 20,6 °C 18,9 °C 16,7 °C 60,00% 0 lf 11 cb 993,7 hPa 0,0 mm 11,3 km/h (2 Bft) SW 225 ° 30 min 30 min 0,508 mm 4,1 UV-I 1013 W/m˛ 8,9 °C 16,3 °C 25,7 km/h (4 Bft)
05.06.20 15:30:00 16,4 °C 16,3 °C 17,7 °C 18,3 °C 21,1 °C 19,4 °C 16,7 °C 58,00% 0 lf 11 cb 993,5 hPa 0,0 mm 8,0 km/h (2 Bft) SW 225 ° 30 min 30 min 0,000 mm 3,7 UV-I 977 W/m˛ 8,1 °C 16,3 °C 25,7 km/h (4 Bft)
05.06.20 16:00:00 17,3 °C 16,4 °C 17,4 °C 18,9 °C 21,7 °C 19,4 °C 17,2 °C 58,00% 0 lf 11 cb 993,4 hPa 0,0 mm 11,3 km/h (2 Bft) SW 225 ° 30 min 30 min 0,432 mm 3,3 UV-I 944 W/m˛ 9,0 °C 16,4 °C 24,1 km/h (4 Bft)
05.06.20 16:30:00 16,1 °C 15,7 °C 17,4 °C 17,8 °C 20,0 °C 19,4 °C 17,2 °C 60,00% 0 lf 11 cb 993,4 hPa 0,0 mm 9,7 km/h (2 Bft) SW 225 ° 30 min 30 min 0,000 mm 3,0 UV-I 823 W/m˛ 8,3 °C 15,7 °C 20,9 km/h (4 Bft)
05.06.20 17:00:00 17,1 °C 16,1 °C 17,7 °C 17,2 °C 18,9 °C 18,9 °C 17,2 °C 54,00% 0 lf 11 cb 993,1 hPa 0,0 mm 11,3 km/h (2 Bft) SW 225 ° 30 min 30 min 0,305 mm 2,4 UV-I 821 W/m˛ 7,7 °C 16,1 °C 29,0 km/h (5 Bft)
05.06.20 17:30:00 17,8 °C 17,0 °C 17,8 °C 16,7 °C 17,8 °C 18,3 °C 17,2 °C 50,00% 0 lf 11 cb 992,8 hPa 0,0 mm 9,7 km/h (2 Bft) S-SW 202 ° 30 min 30 min 0,000 mm 1,9 UV-I 605 W/m˛ 7,2 °C 17,0 °C 29,0 km/h (5 Bft)
05.06.20 18:00:00 17,7 °C 17,5 °C 17,8 °C 16,7 °C 17,2 °C 17,8 °C 17,8 °C 50,00% 0 lf 11 cb 992,5 hPa 0,0 mm 11,3 km/h (2 Bft) S-SW 202 ° 30 min 30 min 0,356 mm 1,5 UV-I 552 W/m˛ 7,1 °C 17,5 °C 25,7 km/h (4 Bft)
05.06.20 18:30:00 17,7 °C 17,5 °C 17,8 °C 16,1 °C 16,1 °C 17,2 °C 17,8 °C 52,00% 0 lf 11 cb 992,2 hPa 0,0 mm 9,7 km/h (2 Bft) S 180 ° 30 min 30 min 0,000 mm 1,2 UV-I 445 W/m˛ 7,7 °C 17,5 °C 22,5 km/h (4 Bft)
05.06.20 19:00:00 17,1 °C 16,4 °C 17,7 °C 16,1 °C 16,1 °C 17,2 °C 17,8 °C 53,00% 0 lf 11 cb 991,9 hPa 0,0 mm 8,0 km/h (2 Bft) S 180 ° 30 min 30 min 0,229 mm 0,6 UV-I 424 W/m˛ 7,4 °C 16,4 °C 17,7 km/h (3 Bft)
05.06.20 19:30:00 16,5 °C 16,5 °C 17,1 °C 15,6 °C 15,6 °C 16,7 °C 17,8 °C 54,00% 0 lf 12 cb 991,6 hPa 0,0 mm 11,3 km/h (2 Bft) S-SO 157 ° 30 min 30 min 0,000 mm 0,5 UV-I 257 W/m˛ 7,2 °C 16,5 °C 24,1 km/h (4 Bft)
05.06.20 20:00:00 15,7 °C 15,7 °C 16,5 °C 15,0 °C 15,6 °C 16,1 °C 17,2 °C 60,00% 0 lf 12 cb 991,1 hPa 0,0 mm 6,4 km/h (2 Bft) S-SO 157 ° 30 min 30 min 0,127 mm 0,0 UV-I 186 W/m˛ 8,0 °C 15,7 °C 17,7 km/h (3 Bft)
05.06.20 20:30:00 15,3 °C 15,3 °C 15,7 °C 15,0 °C 15,6 °C 16,1 °C 17,2 °C 62,00% 0 lf 12 cb 991,0 hPa 0,0 mm 6,4 km/h (2 Bft) S-SO 157 ° 30 min 30 min 0,000 mm 0,0 UV-I 121 W/m˛ 8,1 °C 15,3 °C 17,7 km/h (3 Bft)
05.06.20 21:00:00 14,8 °C 14,8 °C 15,3 °C 13,9 °C 15,0 °C 16,1 °C 17,2 °C 63,00% 0 lf 12 cb 990,9 hPa 0,0 mm 8,0 km/h (2 Bft) S-SO 157 ° 30 min 30 min 0,076 mm 0,0 UV-I 42 W/m˛ 7,8 °C 14,8 °C 20,9 km/h (4 Bft)
05.06.20 21:30:00 14,4 °C 14,4 °C 14,8 °C 13,9 °C 15,0 °C 15,6 °C 17,2 °C 64,00% 0 lf 12 cb 990,7 hPa 0,0 mm 6,4 km/h (2 Bft) S 180 ° 0 min 30 min 0,000 mm 0,0 UV-I 19 W/m˛ 7,7 °C 14,4 °C 19,3 km/h (3 Bft)
05.06.20 22:00:00 12,2 °C 12,2 °C 14,4 °C 11,7 °C 14,4 °C 15,6 °C 17,2 °C 81,00% 15 lf 12 cb 991,5 hPa 0,1 mm 11,3 km/h (2 Bft) S-SO 157 ° 0 min 30 min 0,051 mm 0,0 UV-I 0 W/m˛ 9,0 °C 12,2 °C 37,0 km/h (5 Bft)
05.06.20 22:30:00 10,8 °C 10,8 °C 12,2 °C 11,1 °C 13,9 °C 15,0 °C 17,2 °C 89,00% 15 lf 12 cb 991,3 hPa 0,2 mm 12,9 km/h (3 Bft) SW 225 ° 0 min 30 min 0,000 mm 0,0 UV-I 0 W/m˛ 9,1 °C 10,8 °C 37,0 km/h (5 Bft)
05.06.20 23:00:00 10,6 °C 10,6 °C 10,8 °C 11,1 °C 13,9 °C 15,0 °C 17,2 °C 91,00% 15 lf 12 cb 990,9 hPa 0,1 mm 6,4 km/h (2 Bft) S 180 ° 0 min 30 min 0,025 mm 0,0 UV-I 0 W/m˛ 9,2 °C 10,6 °C 22,5 km/h (4 Bft)
05.06.20 23:30:00 10,4 °C 10,4 °C 10,7 °C 11,1 °C 13,3 °C 14,4 °C 16,7 °C 92,00% 15 lf 12 cb 991,2 hPa 0,2 mm 8,0 km/h (2 Bft) S 180 ° 0 min 30 min 0,000 mm 0,0 UV-I 0 W/m˛ 9,2 °C 10,4 °C 29,0 km/h (5 Bft)

                                                                                                                                                                             _________________________________________________________________________________________________________________________________________________________________________

 Anomalie Daten

ausgewähltes Produkt zur Leistung: Zeitreihen und Trends
 
ausgewähltes Produkt zur Leistung:

 

 

ausgewähltes Produkt zur Leistung: Zeitreihen und Trends

Absolut Daten

ausgewähltes Produkt zur Leistung: Zeitreihen und Trends
ausgewähltes Produkt zur Leistung: Zeitreihen und Trends

 

ausgewähltes Produkt zur Leistung: Zeitreihen und Trends

 

2009 - 2020

Unwetterwarnungen

 

  Radarbild           

aktueller Radarfilm Deutschland

  Europa-Meteoalarm    

 

Waldbrandindex

ausgewähltes Produkt zur Leistung: